Regional Weather Roundup
Issued by NWS

Home | Current Version | Previous Version | Graphics & Text | Print | Product List | Glossary On
Versions: 1 2 3 4 5 6 7 8 9 10 11 12 13 14 15 16 17 18 19 20 21 22 23 24 25 26 27 28 29 30 31 32 33 34 35 36 37 38 39 40 41 42 43 44 45 46 47 48 49 50
000
ASUS43 KFSD 282310
RWRSD

WEATHER ROUNDUP FOR SOUTH DAKOTA
NATIONAL WEATHER SERVICE SIOUX FALLS SD
600 PM CDT THU JUL 28 2016

NOTE: "FAIR" INDICATES FEW OR NO CLOUDS BELOW 12,000 FEET WITH NO
SIGNIFICANT WEATHER AND/OR OBSTRUCTIONS TO VISIBILITY.


SDZ001>005-009-010-012>017-290000-
NORTHWEST AND NORTH CENTRAL SOUTH DAKOTA

CITY           SKY/WX    TMP DP  RH WIND       PRES   REMARKS
BUFFALO          N/A     67  62  84 NE8       30.08S
FAITH            N/A     64  61  90 E13       30.11F
MOBRIDGE       PTSUNNY   80  54  40 NE10      30.06F
$$

SDZ012>016-024>037-041>051-057-063-072>074-290000-
SOUTHWEST AND SOUTH CENTRAL SOUTH DAKOTA

CITY           SKY/WX    TMP DP  RH WIND       PRES   REMARKS
RAPID CTY ARPT CLOUDY    73  54  51 N9        30.11F
PIERRE         RAIN      68  62  81 W10       30.06R
CUSTER         PTSUNNY   71  46  40 VRB3      30.22S
ELLSWORTH AFB  SUNNY     72  56  55 NE7       30.11F
PHILIP         LGT RAIN  64  63  96 NE8       30.07F
PINE RIDGE     PTSUNNY   79  57  46 N7        30.11F
WINNER         LGT RAIN  72  64  76 S7        30.06S
$$

SDZ004>011-016>023-039-040-290000-
NORTHEAST SOUTH DAKOTA

CITY           SKY/WX    TMP DP  RH WIND       PRES   REMARKS
ABERDEEN       CLOUDY    77  58  51 E3        30.05F
WATERTOWN      MOSUNNY   77  56  48 E9        30.06F
BROOKINGS      MOSUNNY   74  58  57 NE8       30.05S
SISSETON         N/A     77  59  53 SE6       30.04F
$$

SDZ017-020-022-023-036>040-048>070-290000-
SOUTHEAST SOUTH DAKOTA

CITY           SKY/WX    TMP DP  RH WIND       PRES   REMARKS
SIOUX FALLS    PTSUNNY   75  59  57 NE14      30.03R
HURON          CLOUDY    79  58  48 NE12      30.03R
CHAMBERLAIN    CLOUDY    81  59  46 NE6       30.04S
MITCHELL       CLOUDY    79  60  52 NE8       30.03S
YANKTON        MOSUNNY   79  57  47 NE8       30.00S
$$

ABBREVIATIONS USED IN REMARKS
   TC - TEMPERATURE IN CELSIUS
  WCI - WIND CHILL INDEX
   HX - HEAT INDEX
  VSB - VISIBILITY





USA.gov is the U.S. government's official web portal to all federal, state and local government web resources and services.